CW5346 Weather Reports


Display with metric or nautical units.
time (UTC)temp
F
wind
direction
speed
MPH
gust
MPH
rain 1hr
in
rain 24hr
in
rain mn
in
humidity
%
barometer
mb
20260901080604 69 216 0.0 0.0 0.00 0.48 0.27 98 1016.1
20260901075604 69 216 0.0 0.0 0.00 0.48 0.27 98 1016.2
20260901074604 69 216 0.0 0.0 0.00 0.48 0.27 98 1016.1
20260901073604 69 216 0.0 0.0 0.00 0.48 0.27 98 1016.3
20260901072604 69 216 0.0 0.0 0.00 0.48 0.27 98 1016.3
20260901071604 69 216 0.0 0.0 0.00 0.48 0.27 98 1016.4
20260901070604 69 216 0.0 0.0 0.00 0.48 0.27 98 1016.6
20260901065604 69 216 0.0 0.0 0.00 0.48 0.27 98 1016.5
20260901064604 69 216 0.0 0.0 0.00 0.48 0.27 98 1016.6
20260901063605 69 216 0.0 0.0 0.00 0.48 0.27 98 1016.6
20260901062604 69 216 0.0 0.0 0.00 0.48 0.27 98 1016.9
20260901061604 69 216 0.0 0.0 0.00 0.48 0.27 98 1017.0
20260901060603 69 216 0.0 0.0 0.00 0.48 0.27 98 1017.0
20260901055604 69 216 0.0 0.0 0.01 0.48 0.27 98 1016.8
20260901054603 69 216 0.0 0.0 0.01 0.48 0.27 98 1016.9
20260901052626 69 216 0.0 0.0 0.01 0.48 0.27 97 1017.0
20260901051604 69 216 0.0 0.0 0.00 0.47 0.26 97 1017.1
20260901050604 69 216 0.0 0.0 0.00 0.47 0.26 97 1017.1
20260901045605 69 216 0.0 0.0 0.26 0.47 0.26 97 1017.3
20260901044604 69 216 0.0 0.0 0.26 0.47 0.26 97 1017.2
20260901043604 69 216 0.0 0.0 0.26 0.47 0.26 97 1017.2
20260901042625 69 216 0.0 0.0 0.26 0.47 0.26 97 1017.3
20260901041604 69 216 0.0 0.0 0.14 0.35 0.14 97 1017.4
20260901040625 69 216 0.0 0.0 0.01 0.22 0.01 96 1017.6
20260901035604 69 216 0.0 0.0 0.17 0.18 0.18 96 1017.5
20260901034624 70 216 0.0 0.0 0.05 0.06 0.06 96 1017.6
20260901033605 70 216 0.0 0.0 0.03 0.04 0.04 96 1017.5
20260901032647 70 216 0.0 0.0 0.01 0.02 0.02 96 1017.6
20260901031604 70 216 0.0 0.0 0.00 0.01 0.01 96 1017.7
20260901030604 70 216 0.0 0.0 0.00 0.01 0.01 96 1017.7
20260901025603 70 216 0.0 0.0 0.00 0.00 0.00 96 1017.9
20260901024604 70 216 0.0 0.0 0.00 0.00 0.00 96 1017.9
20260901023604 70 216 0.0 0.0 0.00 0.00 0.00 95 1018.0
20260901022604 70 216 0.0 0.0 0.00 0.00 0.00 95 1018.2
20260901021603 70 216 0.0 0.0 0.00 0.00 0.00 95 1018.2
20260901020604 70 216 0.0 0.0 0.00 0.00 0.00 95 1018.3
20260901015604 70 216 0.0 0.0 0.00 0.00 0.00 95 1018.2
20260901014604 70 216 0.0 0.0 0.00 0.00 0.00 95 1018.2
20260901013603 70 216 0.0 0.0 0.00 0.00 0.00 95 1018.4
20260901012625 70 216 0.0 0.0 0.00 0.00 0.00 95 1018.3
20260901011604 70 216 0.0 0.0 0.00 0.00 0.00 95 1018.3
20260901010604 70 216 0.0 0.0 0.00 0.00 0.00 94 1018.3
20260901005604 70 216 0.0 0.0 0.00 0.01 0.00 94 1018.2
20260901004604 71 216 0.0 0.0 0.00 0.01 0.00 93 1018.2
20260901003604 71 216 0.0 0.0 0.00 0.01 0.00 93 1018.1
20260901002604 71 216 0.0 0.0 0.00 0.02 0.00 93 1018.0
20260901001603 71 216 0.0 0.0 0.00 0.02 0.00 92 1018.1
20260901000604 71 216 0.0 0.0 0.00 0.02 0.00 92 1017.9
20260831235604 71 216 0.0 0.0 0.00 0.03 0.00 92 1017.9
20260831234604 72 216 0.0 0.0 0.00 0.03 0.00 91 1018.0
20260831233625 72 216 0.0 0.0 0.00 0.03 0.00 91 1017.9
20260831232603 72 216 0.0 0.0 0.00 0.03 0.00 90 1018.1
20260831231604 72 216 0.0 0.0 0.00 0.03 0.00 89 1018.2
20260831230604 72 216 0.0 0.0 0.00 0.03 0.00 88 1018.2
20260831225603 73 216 0.0 0.0 0.00 0.03 0.00 88 1018.2
20260831224604 73 216 0.0 0.0 0.00 0.03 0.00 88 1018.2
20260831223604 73 216 0.0 0.0 0.00 0.03 0.00 86 1018.2
20260831222604 73 216 0.0 0.0 0.00 0.03 0.00 86 1018.3
20260831221604 73 216 0.0 0.0 0.00 0.03 0.00 86 1018.3
20260831220625 74 216 0.0 0.0 0.00 0.03 0.00 86 1018.4
20260831215604 74 216 0.0 0.0 0.00 0.03 0.00 85 1018.4
20260831214604 74 216 0.0 0.0 0.00 0.03 0.00 85 1018.4
20260831213604 74 216 0.0 0.0 0.00 0.03 0.00 86 1018.6
20260831212603 74 216 0.0 3.0 0.00 0.03 0.00 87 1018.5
20260831211604 74 216 0.0 0.0 0.00 0.03 0.00 86 1018.6
20260831210604 74 215 1.0 4.0 0.00 0.03 0.00 86 1018.6
20260831205646 74 214 1.0 6.0 0.00 0.03 0.00 86 1018.8
20260831204604 74 208 1.0 4.0 0.00 0.03 0.00 87 1018.8
20260831203604 74 204 2.0 9.0 0.00 0.03 0.00 86 1019.0
20260831202625 74 197 0.0 0.0 0.00 0.03 0.00 87 1018.8
20260831201646 74 197 0.0 1.0 0.00 0.03 0.00 88 1018.7
20260831200604 73 196 0.0 2.0 0.00 0.03 0.00 88 1018.6
20260831195604 73 197 0.0 0.0 0.00 0.03 0.00 88 1018.8
20260831194603 73 197 0.0 0.0 0.00 0.03 0.00 86 1019.0
20260831193604 74 197 0.0 0.0 0.00 0.03 0.00 86 1019.2
20260831192604 74 197 0.0 0.0 0.00 0.03 0.00 85 1019.3
20260831191603 75 197 0.0 0.0 0.00 0.03 0.00 82 1019.2
20260831190604 76 197 0.0 0.0 0.00 0.03 0.00 80 1019.3
20260831185603 76 197 0.0 0.0 0.00 0.03 0.00 77 1019.4
20260831184604 77 197 0.0 0.0 0.00 0.03 0.00 75 1019.5
20260831183604 77 197 0.0 0.0 0.00 0.03 0.00 77 1019.4
20260831182603 77 197 0.0 0.0 0.00 0.03 0.00 73 1019.4
20260831181604 78 197 0.0 0.0 0.00 0.03 0.00 73 1019.6
20260831180603 78 197 0.0 5.0 0.00 0.03 0.00 72 1019.6
20260831175625 78 201 0.0 0.0 0.00 0.03 0.00 73 1019.8
20260831174604 78 201 0.0 0.0 0.00 0.03 0.00 73 1019.8
20260831173604 78 201 0.0 0.0 0.00 0.03 0.00 73 1019.9
20260831172604 77 201 0.0 1.0 0.00 0.03 0.00 76 1020.0
20260831171604 77 201 0.0 0.0 0.00 0.03 0.00 75 1019.9
20260831170604 76 201 0.0 0.0 0.00 0.03 0.00 73 1019.9
20260831165604 76 201 0.0 4.0 0.00 0.03 0.00 73 1020.0
20260831164604 77 200 2.0 4.0 0.00 0.03 0.00 74 1020.2
20260831163603 77 201 0.0 2.0 0.00 0.03 0.00 76 1019.9
20260831162604 77 201 0.0 0.0 0.00 0.03 0.00 75 1020.2
20260831161603 77 201 0.0 0.0 0.00 0.03 0.00 75 1020.0
20260831160604 77 201 0.0 4.0 0.00 0.03 0.00 76 1020.0
20260831155603 76 203 0.0 2.0 0.00 0.03 0.00 74 1020.1
20260831154604 76 211 0.0 0.0 0.00 0.03 0.00 74 1020.3
20260831153604 76 215 0.0 1.0 0.00 0.03 0.00 74 1020.2
20260831152603 76 216 0.0 2.0 0.00 0.03 0.00 77 1020.3
20260831151604 76 217 0.0 0.0 0.00 0.03 0.00 78 1020.4
20260831150603 75 217 0.0 0.0 0.00 0.03 0.00 78 1020.4
20260831145603 74 214 2.0 6.0 0.00 0.03 0.00 82 1020.4
20260831144604 73 217 1.0 3.0 0.00 0.03 0.00 83 1020.4
20260831143603 72 221 0.0 0.0 0.00 0.03 0.00 85 1020.5
20260831142604 71 221 0.0 0.0 0.00 0.03 0.00 86 1020.5
20260831141624 71 221 0.0 0.0 0.00 0.03 0.00 87 1020.6
20260831140605 71 221 0.0 0.0 0.00 0.03 0.00 88 1020.5
20260831135603 70 221 0.0 0.0 0.00 0.03 0.00 88 1020.4
20260831134624 69 221 0.0 0.0 0.00 0.03 0.00 90 1020.4
20260831133604 68 221 0.0 0.0 0.00 0.03 0.00 93 1020.4
20260831132603 68 221 0.0 0.0 0.00 0.03 0.00 94 1020.3
20260831131625 68 221 0.0 0.0 0.00 0.03 0.00 95 1020.4
20260831130603 68 221 0.0 0.0 0.00 0.03 0.00 95 1020.4
20260831125604 67 221 0.0 0.0 0.00 0.03 0.00 96 1020.4
20260831124625 67 221 0.0 0.0 0.00 0.03 0.00 96 1020.4
20260831123604 67 221 0.0 0.0 0.00 0.03 0.00 96 1020.3
20260831121604 66 221 0.0 0.0 0.00 0.03 0.00 96 1020.5
20260831120604 66 221 0.0 0.0 0.00 0.03 0.00 97 1020.4
20260831115604 66 221 0.0 0.0 0.00 0.03 0.00 97 1020.4
20260831114603 66 221 0.0 0.0 0.00 0.03 0.00 96 1020.4
20260831113624 66 221 0.0 0.0 0.00 0.03 0.00 96 1020.2
20260831112603 66 221 0.0 0.0 0.00 0.03 0.00 96 1020.1
20260831111604 65 221 0.0 0.0 0.00 0.03 0.00 96 1019.8
20260831110604 65 221 0.0 0.0 0.00 0.03 0.00 96 1019.6
20260831105604 65 221 0.0 0.0 0.00 0.03 0.00 96 1019.8
20260831104603 65 221 0.0 0.0 0.00 0.03 0.00 96 1019.8
20260831102603 65 221 0.0 0.0 0.00 0.03 0.00 96 1019.7
20260831101604 65 221 0.0 0.0 0.00 0.03 0.00 96 1019.7
20260831100624 65 221 0.0 0.0 0.00 0.03 0.00 96 1019.6
20260831095604 66 221 0.0 0.0 0.00 0.03 0.00 96 1019.5
20260831094603 66 221 0.0 0.0 0.00 0.03 0.00 96 1019.4
20260831093603 66 221 0.0 0.0 0.00 0.03 0.00 96 1019.3
20260831092604 66 221 0.0 0.0 0.00 0.03 0.00 96 1019.2
20260831091625 66 221 0.0 0.0 0.00 0.03 0.00 96 1019.1
20260831090603 66 221 0.0 0.0 0.00 0.03 0.00 96 1018.9
20260831085604 66 221 0.0 0.0 0.00 0.03 0.00 96 1019.0
20260831084603 66 221 0.0 0.0 0.00 0.03 0.00 96 1018.9
20260831083604 66 221 0.0 0.0 0.00 0.03 0.00 96 1019.0
20260831082604 66 221 0.0 0.0 0.00 0.03 0.00 96 1019.0
20260831081603 66 221 0.0 0.0 0.00 0.03 0.00 96 1019.1